www.pogodaiklimat.ru
ПОГОДА в Франкфорте
Время
и дата
15:16 29.11
15:56 29.11
16:36 29.11
17:16 29.11
17:56 29.11
18:36 29.11
19:16 29.11
19:56 29.11
20:36 29.11
21:16 29.11
21:56 29.11
22:36 29.11
23:16 29.11
23:56 29.11
00:36 30.11
01:16 30.11
01:56 30.11
02:36 30.11
03:16 30.11
03:56 30.11
04:36 30.11
05:16 30.11
05:56 30.11
06:36 30.11
07:16 30.11
07:56 30.11
08:36 30.11
09:16 30.11
09:56 30.11
10:36 30.11
11:16 30.11
12:16 30.11
12:56 30.11
13:36 30.11
14:16 30.11
15:16 30.11
15:56 30.11
16:36 30.11
17:16 30.11
17:56 30.11
18:36 30.12
19:16 30.11
19:56 30.11
20:36 30.11
21:16 30.11
21:56 30.11
22:36 30.11
23:16 30.11
Ветер
(напр.,м/с)
Видим. Явления Облачность Т
(С)
Тd
(С)
f
(%)
Тe
(С)
Тes
(С)
Комфортность P
(гПа)
Po
(гПа)
Тmin
(С)
Tmax
(С)
R
(мм)
R24
(мм)
S
(см)
СЗ 2 16 км ясно +7.0 +1.0 66 +3 +4 987.5
СЗ 2 16 км 5/5 720 м +6.0 0.0 65 +3 +3 987.8
СЗ 1 16 км 10/10 1200 м +6.0 0.0 65 +4 +4 988.5
СЗ 2 16 км 10/10 930 м +6.0 -1.0 61 +2 +2 988.8
СЗ 3
{4}
16 км 10/10 960 м +6.0 -2.0 56 +2 +2 989.1
СЗ 3
{5}
16 км 10/10 810 м +5.0 -2.0 61 0 0 989.4
СЗ 3
{5}
16 км 10/10 1500 м +4.0 -2.0 65 -2 -2 989.8
СЗ 3
{5}
16 км 10/10 900 м +4.0 -3.0 60 -1 -1 990.1
СЗ 2
{4}
16 км 10/10 960 м +4.0 -2.0 65 0 0 990.1
СЗ 4
{6}
16 км 10/10 900 м +3.0 -3.0 65 -3 -3 990.4
СЗ 3
{4}
16 км 10/10 810 м +2.0 -4.0 64 -4 -4 990.8
СЗ 3
{5}
16 км 10/10 810 м +2.0 -4.0 64 -4 -4 991.1
С 3
{4}
16 км 10/10 810 м +2.0 -3.0 69 -4 -4 991.4
С 2
{4}
11 км 10/10 720 м +2.0 -3.0 69 -3 -3 991.4
С 3
{6}
16 км 10/10 660 м +1.0 -3.0 75 -5 -5 991.1
СЗ 4
{5}
16 км 10/10 660 м +1.0 -3.0 75 -6 -6 991.1
С 2
{4}
16 км 10/10 660 м +1.0 -4.0 69 -4 -4 991.4
С 3
{5}
16 км 10/10 660 м +1.0 -4.0 69 -5 -5 991.8
С 3
{5}
16 км 10/10 660 м +1.0 -4.0 69 -5 -5 991.4
С 3
{5}
16 км 10/10 600 м 0.0 -4.0 74 -7 -7 991.4
С 3
{5}
16 км 10/10 600 м 0.0 -4.0 74 -7 -7 991.1
С 3
{4}
16 км 10/10 600 м 0.0 -4.0 74 -7 -7 991.4
С 3
{5}
16 км 10/10 540 м 0.0 -5.0 69 -7 -7 991.4
С 2
{5}
16 км 10/10 540 м 0.0 -4.0 74 -6 -6 991.4
С 3
{5}
16 км 10/10 540 м 0.0 -4.0 74 -6 -6 991.8
С 3
{5}
16 км 10/10 540 м 0.0 -4.0 74 -7 -7 991.4
С 3
{4}
16 км 10/10 480 м 0.0 -4.0 74 -6 -6 991.8
С 3
{5}
16 км 10/10 480 м 0.0 -4.0 74 -7 -7 991.8
С 3
{6}
16 км 10/10 480 м 0.0 -4.0 74 -6 -6 992.1
С 3
{4}
16 км 10/10 630 м 0.0 -4.0 74 -7 -7 991.8
С 2
{4}
16 км 10/10 600 м 0.0 -4.0 74 -6 -6 991.4
С 2
{4}
16 км 10/10 660 м 0.0 -4.0 74 -5 -5 990.8
С 3
{4}
16 км 10/10 630 м 0.0 -4.0 74 -6 -6 990.4
С 2
{5}
16 км 10/10 630 м 0.0 -5.0 69 -6 -6 990.4
С 3
{5}
16 км 10/10 690 м 0.0 -5.0 69 -6 -6 990.1
С 4
{5}
16 км 10/10 690 м 0.0 -5.0 69 -7 -7 990.4
С 2
{4}
16 км 10/10 660 м 0.0 -5.0 69 -5 -5 990.4
С 2
{4}
16 км 10/10 660 м 0.0 -5.0 69 -6 -6 990.8
С 3
{5}
16 км 10/10 720 м 0.0 -6.0 64 -6 -6 991.1
С 2
{4}
16 км 10/10 810 м 0.0 -6.0 64 -5 -5 991.1
С 4
{5}
16 км 10/10 870 м 0.0 -6.0 64 -7 -7 991.1
С 2
{4}
16 км 10/10 930 м 0.0 -7.0 59 -5 -5 991.1
С 3
{4}
16 км 10/10 900 м 0.0 -7.0 59 -6 -6 991.1
С 3
{4}
16 км 10/10 780 м 0.0 -6.0 64 -6 -6 991.1
С 3
{4}
16 км 10/10 840 м 0.0 -6.0 64 -6 -6 990.8
С 3
{4}
16 км 10/10 780 м 0.0 -6.0 64 -6 -6 990.8
С 2
{4}
16 км 10/10 780 м 0.0 -6.0 64 -5 -5 990.4
С 3
{4}
16 км 10/10 780 м 0.0 -6.0 64 -6 -6 990.4
Местоположение метеостанции Frankfort Dow Memorial Field Airport: широта 44.6250 долгота -86.2006 высота над уровнем моря 193 м.
В архиве по умолчанию представлена погода в Франкфорте за последние 1-2 суток. Обновление информации о фактической погоде в базе происходит ежечасно! Архивные данные за месяц целиком и за предыдущие месяцы Вы можете получить, выбрав интересующий диапазон дат из раскрывающегося списка и нажав кнопку "Ввод!".
Внимание! Архив погоды МЕТАР в базе сайта по станциям, не включенным в климатический монитор, хранится не более 60 дней. Нет смысла пытаться выбрать более раннюю дату.
*Определитесь, кто Вы:
Внимание! Время в таблицах - местное (без учета летнего времени). Для получения всемирного времени необходимо вычесть поправку, которая равна -5 ч.
Смотрите также архив погоды в соседних городах и на ближайших метеорологических станциях:
Партнеры нашего сайта:      
Пояснения к столбцам:
  • Ветер - указаны скорость ветра в м/с - средняя за 10 мин, порывы в срок и между сроками (в фигурных скобках) и направление, откуда дует ветер: С - северный,
  • СВ - северо-восточный, В - восточный, ЮВ - юго-восточный, Ю - южный, ЮЗ - юго-западный, З - западный, СЗ - северо-западный.
  • Видимость - горизонтальная дальность видимости в метрах или километрах. При видимости от 1 до 10 км при отсутствии осадков обычно наблюдается дымка, при ухудшении видимости до 1 км и менее - туман. В сухую погоду видимость может ухудшаться дымом, пылью или мглою.
  • Явления - указаны атмосферные явления, наблюдавшиеся в срок или в последний час перед сроком; фигурными скобками обозначены явления, наблюдавшиеся между сроками (за 1-3 часа до срока); квадратными скобками обозначены град или гололедные отложения с указанием их диаметра в мм.
  • Облачность - указаны через наклонную черту общая и нижняя облачность в баллах и высота нижней границы облаков в метрах; квадратными скобками обозначены формы облаков: Ci - перистые, Cs - перисто-слоистые, Cc - перисто-кучевые, Ac - высококучевые, As - высокослоистые, Sc - слоисто-кучевые, Ns - слоисто-дождевые, Cu - кучевые, Cb - кучево-дождевые. Подробнее классификацию облаков см. в Атласе облаков (PDF).
  • T - Температура воздуха - температура, измеренная на высоте 2 м над землей.
  • Td - Температура точки росы - температура, при понижении до которой содержащийся в воздухе водяной пар достигнет насыщения.
  • f - Относительная влажность воздуха - влажноcть воздуха, измеренная на высоте 2 м над землей.
  • Te - Эффективная температура - температура, которую ощущает одетый по сезону человек в тени. Характеристика душности погоды. При расчете учитывается влияние влажности воздуха и скорости ветра на теплоощущения человека.
  • Tes - Эффективная температура на солнце - температура, которую ощущает человек, с поправкой на солнечный нагрев. Характеристика знойности погоды. Зависит от высоты солнца над горизонтом, облачности и скорости ветра. Ночью, в пасмурную погоду, а также при ветре 12 м/с и более поправка равна нулю.
  • P - Атмосферное давление - приведенное к уровню моря атмосферное давление.
  • Po - Атмосферное давление - измеренное на уровне метеостанции атмосферное давление.
  • Tmin - Минимальная температура - минимум температуры воздуха на высоте 2 м над землей.
  • Tmax - Максимальная температура - максимум температуры воздуха на высоте 2 м над землей.
  • R - Количество осадков - Количество выпавших осадков за период времени, мм. При наведении курсора мыши на число - период времени, за который выпало указанное количество осадков.
  • R24 - Количество осадков - Количество выпавших осадков за 24 часа, мм.
  • S - Снежный покров - Высота снежного покрова, см. При наведении курсора мыши на число - состояние снежного покрова и степень покрытия местности в баллах.